PBO Station Position Time Series. Reference Frame : NAM14
Format Version,1.1.0
4-character ID,YELL
Station name,Yellowknife
Begin Date, 1996-01-01
End Date, 2019-10-07
Release Date, 2019-10-08
Reference position, 62.4808933622 North Latitude, -114.4807032509 East Longitude, 180.92370 meters elevation,
Date, North (mm), East (mm), Vertical (mm), North Std. Deviation (mm), East Std. Deviation (mm),              Vertical Std. Deviation (mm), Quality,
1996-01-01,0.00, 0.00, 0.00, 3.14, 2.42, 10.05, repro,
1996-01-02,1.20, 0.10, 3.01, 3.75, 2.66, 11.80, repro,
1996-01-03,0.97, 0.41, 1.11, 3.21, 2.43, 10.09, repro,
1996-01-04,0.89, -0.79, -4.25, 3.12, 2.38, 9.81, repro,
1996-01-05,2.11, 0.72, 3.46, 4.01, 3.01, 12.41, repro,
1996-01-06,-0.94, -0.07, 8.44, 3.63, 2.71, 11.96, repro,
1996-01-07,1.84, 0.93, 13.04, 3.76, 2.89, 12.68, repro,
1996-01-08,0.59, 1.24, 15.39, 4.23, 3.06, 13.35, repro,
1996-01-09,0.34, -1.55, 7.81, 4.16, 2.86, 14.02, repro,
1996-01-10,2.54, -0.18, 7.60, 3.76, 2.76, 12.04, repro,
1996-01-11,2.41, 0.68, 10.72, 3.78, 2.84, 12.65, repro,
1996-01-12,1.74, 0.25, 13.73, 3.70, 2.77, 11.87, repro,
1996-01-13,2.93, -2.13, 3.22, 4.76, 3.25, 16.90, repro,
1996-01-14,-0.80, -0.61, -1.12, 4.23, 3.11, 14.19, repro,
1996-01-15,3.29, -0.74, -1.24, 4.56, 3.19, 15.09, repro,
1996-01-16,3.39, -0.47, 1.95, 4.51, 3.03, 14.51, repro,
1996-01-17,1.68, -0.19, 6.00, 4.14, 3.00, 13.43, repro,
1996-01-18,3.03, -4.02, -4.43, 3.36, 2.42, 11.28, repro,
1996-01-19,2.69, -1.96, 4.61, 4.01, 2.83, 12.61, repro,
1996-01-20,1.96, 1.26, 5.22, 3.92, 2.89, 13.13, repro,
1996-01-21,0.85, -3.36, 19.12, 4.44, 2.99, 13.45, repro,
1996-01-22,4.36, -1.14, 4.06, 4.03, 2.97, 12.44, repro,
1996-01-23,2.82, -0.54, 1.81, 4.24, 3.04, 13.62, repro,
1996-01-24,3.75, -3.19, -10.80, 4.05, 2.82, 12.75, repro,
1996-01-25,0.27, -2.21, 3.31, 4.01, 2.80, 12.51, repro,
1996-01-26,2.40, 0.28, 2.54, 4.93, 3.49, 16.09, repro,
1996-01-27,1.53, -0.64, -5.16, 4.18, 3.01, 12.86, repro,
1996-01-28,3.11, -2.79, -8.28, 3.85, 2.78, 12.03, repro,
1996-01-29,1.14, -3.17, -2.53, 3.56, 2.51, 12.12, repro,
1996-01-30,1.30, -0.79, 2.74, 4.65, 3.41, 15.64, repro,
1996-01-31,1.30, -1.00, -8.03, 3.88, 2.59, 11.61, repro,
1996-02-01,1.85, -0.95, -3.16, 3.49, 2.39, 10.95, repro,
1996-02-02,0.97, 0.04, -1.69, 3.26, 2.29, 10.46, repro,
1996-02-03,0.53, -2.13, 0.47, 3.11, 2.16, 9.83, repro,
1996-02-04,2.23, -1.69, 5.40, 3.06, 2.26, 9.57, repro,
1996-02-05,1.66, -2.43, 18.46, 3.19, 2.22, 9.97, repro,
1996-02-06,2.97, -1.52, 26.82, 3.06, 2.16, 10.03, repro,
1996-02-07,3.00, -0.91, 21.13, 3.54, 2.49, 11.77, repro,
1996-02-08,2.65, -0.88, 20.85, 3.14, 2.18, 9.68, repro,
1996-02-09,4.08, -0.78, 19.32, 6.66, 4.12, 18.72, repro,
1996-02-10,0.46, -4.21, 7.62, 3.71, 2.45, 11.81, repro,
1996-02-11,0.14, -1.38, 2.03, 4.06, 2.85, 13.92, repro,
1996-02-12,2.52, 0.51, 5.07, 4.07, 2.88, 13.78, repro,
1996-02-13,2.99, -0.84, 3.39, 4.84, 3.55, 15.94, repro,
1996-02-14,5.51, -0.72, 9.50, 4.84, 3.34, 16.03, repro,
1996-02-15,3.36, -2.78, -0.44, 4.27, 2.99, 14.08, repro,
1996-02-16,3.96, -2.19, 5.41, 4.94, 3.35, 15.29, repro,
1996-02-17,4.04, -1.51, -3.65, 4.14, 2.81, 15.10, repro,
1996-02-18,3.38, 0.30, 4.67, 4.06, 2.85, 13.29, repro,
1996-02-19,4.57, -0.53, 23.63, 4.05, 2.86, 14.32, repro,
1996-02-20,6.47, -0.85, 19.12, 3.99, 2.96, 13.64, repro,
1996-02-21,4.38, -0.28, 14.34, 3.98, 2.85, 13.61, repro,
1996-02-22,4.90, -1.56, 17.07, 3.93, 2.83, 13.29, repro,
1996-02-23,3.99, -3.93, 11.06, 4.68, 3.43, 16.33, repro,
1996-02-24,4.27, -3.59, -5.49, 4.17, 2.85, 13.54, repro,
1996-02-25,2.98, -2.46, -11.37, 4.76, 3.35, 15.61, repro,
1996-02-26,3.60, -2.03, 1.58, 4.17, 2.90, 13.76, repro,
1996-02-27,4.81, -0.41, -4.61, 4.02, 2.81, 13.47, repro,
1996-02-28,2.79, -2.20, 5.77, 4.06, 2.90, 13.85, repro,
1996-02-29,5.47, -1.71, 5.43, 4.67, 3.08, 15.69, repro,
1996-03-01,5.92, -0.98, -7.60, 3.99, 2.75, 13.64, repro,
1996-03-02,5.37, -0.43, 6.73, 4.07, 2.91, 14.02, repro,
1996-03-03,4.53, -1.92, 6.48, 4.47, 3.07, 14.88, repro,
1996-03-04,3.37, 0.57, 5.12, 3.98, 2.73, 13.33, repro,
1996-03-05,6.07, -2.55, -3.63, 3.08, 2.27, 10.21, repro,
1996-03-06,3.92, -2.63, -7.65, 3.73, 2.67, 12.50, repro,
1996-03-07,2.01, -3.56, -11.56, 3.84, 2.71, 12.61, repro,
1996-03-08,0.44, -2.24, 1.64, 3.91, 2.65, 13.42, repro,
1996-03-09,3.35, -0.94, 7.66, 4.95, 3.55, 16.25, repro,
1996-03-10,5.20, -1.50, 12.21, 3.98, 3.07, 15.04, repro,
1996-03-11,5.82, 0.15, 8.88, 3.98, 2.82, 12.49, repro,
1996-03-12,3.39, -3.08, 11.23, 3.75, 2.48, 12.12, repro,
1996-03-13,5.93, -2.57, -1.92, 3.64, 2.69, 12.44, repro,
1996-03-14,4.44, -0.73, 19.64, 3.56, 2.36, 11.29, repro,
1996-03-15,2.90, -1.52, 9.49, 4.38, 3.00, 14.06, repro,
1996-03-16,4.29, -1.61, 9.61, 5.37, 3.43, 17.02, repro,
1996-03-17,6.42, -2.30, 5.92, 4.47, 3.05, 15.18, repro,
1996-03-18,2.96, -3.31, 3.06, 5.34, 3.88, 19.67, repro,
1996-03-19,1.90, -3.59, 1.22, 4.11, 2.90, 14.16, repro,
1996-03-20,-1.08, 0.28, -11.43, 10.23, 11.84, 28.47, repro,
1996-03-21,1.83, -2.11, -3.92, 4.68, 3.91, 17.17, repro,
1996-03-22,5.95, -3.39, -10.99, 4.38, 3.13, 15.29, repro,
1996-03-23,6.16, 0.28, -8.24, 10.09, 8.79, 26.31, repro,
1996-03-24,8.51, -0.08, -8.74, 5.49, 3.68, 16.19, repro,
1996-03-25,4.27, -1.06, -0.21, 4.38, 3.30, 14.97, repro,
1996-03-26,1.54, -4.12, 5.49, 4.68, 3.10, 15.87, repro,
1996-03-27,0.28, -4.79, -0.92, 8.46, 5.11, 27.78, repro,
1996-03-28,3.45, -4.13, -0.29, 3.64, 2.36, 11.78, repro,
1996-03-29,5.06, -3.76, -6.07, 3.01, 2.09, 9.51, repro,
1996-03-30,5.50, -3.81, -7.14, 3.21, 2.18, 9.60, repro,
1996-03-31,4.17, -3.79, -3.66, 3.41, 2.38, 11.02, repro,
1996-04-01,4.60, -4.16, -8.62, 3.57, 2.51, 11.49, repro,
1996-04-02,1.32, -1.20, 2.65, 3.39, 2.39, 10.23, repro,
1996-04-03,2.82, -3.55, 0.77, 3.01, 2.10, 9.70, repro,
1996-04-04,0.40, -2.50, 1.10, 3.62, 2.55, 11.53, repro,
1996-04-05,2.15, -1.42, -0.17, 3.21, 2.22, 10.29, repro,
1996-04-06,4.32, -2.01, 16.44, 3.33, 2.29, 10.38, repro,
1996-04-07,2.84, -3.45, 7.08, 3.13, 2.19, 10.21, repro,
1996-04-08,1.66, -3.26, 7.89, 3.09, 2.18, 9.65, repro,
1996-04-09,1.59, -3.58, 4.35, 3.33, 2.26, 10.30, repro,
1996-04-10,3.80, -2.90, 4.62, 3.18, 2.27, 10.49, repro,
1996-04-11,2.45, -4.58, 2.55, 3.34, 2.36, 10.55, repro,
1996-04-12,2.74, -1.95, 10.42, 4.05, 2.95, 13.76, repro,
1996-04-13,0.57, -4.39, -0.24, 3.23, 2.19, 9.84, repro,
1996-04-14,1.47, -2.34, 3.64, 3.92, 2.83, 13.39, repro,
1996-04-15,4.31, -2.31, 2.32, 3.53, 2.33, 10.91, repro,
1996-04-16,4.45, -2.16, 8.43, 3.34, 2.22, 10.75, repro,
1996-04-17,2.68, -3.97, 14.09, 4.87, 3.23, 14.81, repro,
1996-04-18,6.11, -1.98, 1.62, 4.16, 3.06, 13.66, repro,
1996-04-19,4.49, -3.09, 11.68, 3.87, 2.81, 13.09, repro,
1996-04-20,0.08, -3.15, 3.89, 3.84, 2.59, 12.73, repro,
1996-04-21,5.49, -1.82, 3.33, 4.57, 2.99, 14.25, repro,
1996-04-22,1.96, -2.01, 8.31, 3.85, 2.58, 11.96, repro,
1996-04-23,8.09, -2.82, 3.11, 3.62, 2.50, 12.13, repro,
1996-04-24,4.98, -2.76, 14.13, 3.02, 2.07, 9.49, repro,
1996-04-25,3.44, -3.33, 11.35, 3.17, 2.19, 9.87, repro,
1996-04-26,6.39, -3.57, 10.87, 4.02, 2.81, 13.73, repro,
1996-04-27,8.92, -6.63, 14.65, 5.52, 3.43, 17.65, repro,
1996-04-28,0.25, -2.30, -8.99, 4.90, 3.36, 18.10, repro,
1996-04-29,4.66, -3.43, 5.08, 4.35, 2.85, 14.63, repro,
1996-04-30,5.54, -2.10, 3.78, 3.81, 2.56, 12.60, repro,
1996-05-01,5.24, -2.26, 2.84, 4.89, 3.36, 17.55, repro,
1996-05-02,6.05, -2.38, 2.90, 3.98, 2.71, 13.81, repro,
1996-05-03,4.66, -3.31, 4.60, 4.04, 2.85, 13.74, repro,
1996-05-04,4.13, -3.19, 3.04, 3.02, 2.23, 9.89, repro,
1996-05-05,4.17, -3.66, -1.98, 3.02, 2.14, 9.60, repro,
1996-05-06,6.74, -3.47, 2.70, 3.40, 2.27, 10.60, repro,
1996-05-07,2.84, -3.14, 0.10, 3.03, 2.10, 9.50, repro,
1996-05-08,2.63, -2.07, -3.82, 3.27, 2.27, 10.32, repro,
1996-05-09,4.14, -3.10, 6.41, 2.96, 2.06, 9.32, repro,
1996-05-10,5.18, -3.02, 3.05, 3.07, 2.16, 10.05, repro,
1996-05-11,6.83, -4.58, 1.83, 3.03, 2.18, 10.08, repro,
1996-05-12,4.57, -4.04, 5.25, 3.15, 2.16, 10.24, repro,
1996-05-13,4.65, -4.19, 4.04, 3.58, 2.44, 11.66, repro,
1996-05-14,2.28, -1.84, 13.90, 3.90, 2.76, 12.37, repro,
1996-05-15,4.48, -1.38, 10.51, 3.50, 2.46, 11.30, repro,
1996-05-16,6.58, -3.95, 7.41, 3.97, 2.62, 13.24, repro,
1996-05-17,7.58, -1.48, 20.00, 3.75, 2.59, 12.49, repro,
1996-05-18,5.46, -5.38, 8.85, 3.79, 2.74, 13.84, repro,
1996-05-19,2.28, -4.35, 5.54, 4.18, 3.03, 14.80, repro,
1996-05-20,1.91, -3.11, 11.30, 3.29, 2.37, 10.98, repro,
1996-05-21,3.65, -2.35, 18.60, 3.47, 2.48, 11.92, repro,
1996-05-22,5.26, -2.63, 10.96, 3.18, 2.26, 10.39, repro,
1996-05-23,4.10, -3.62, 8.12, 3.17, 2.24, 10.06, repro,
1996-05-24,2.93, -2.52, 1.56, 3.28, 2.31, 10.67, repro,
1996-05-25,5.11, -2.06, 6.87, 3.99, 2.82, 13.20, repro,
1996-05-26,3.85, -2.29, 16.96, 3.33, 2.33, 10.42, repro,
1996-05-27,5.32, -2.43, 12.97, 3.34, 2.46, 10.71, repro,
1996-05-28,4.80, -3.35, 12.04, 3.22, 2.31, 10.38, repro,
1996-05-29,5.32, -2.31, 6.18, 3.17, 2.26, 10.11, repro,
1996-05-30,5.75, -3.81, 2.83, 3.09, 2.19, 9.88, repro,
1996-05-31,6.58, -2.70, 9.43, 4.09, 2.67, 12.98, repro,
1996-06-01,5.93, -2.23, 1.12, 3.53, 2.52, 10.74, repro,
1996-06-02,7.16, -2.83, 0.65, 3.71, 2.56, 11.54, repro,
1996-06-03,3.15, -1.38, 5.05, 3.28, 2.44, 10.61, repro,
1996-06-04,6.55, -3.04, 7.08, 3.32, 2.43, 10.51, repro,
1996-06-05,4.65, -3.30, 6.68, 3.75, 2.57, 11.76, repro,
1996-06-06,4.38, -2.40, 14.87, 3.51, 2.70, 12.03, repro,
1996-06-07,5.91, -3.81, 28.16, 4.54, 3.07, 14.50, repro,
1996-06-08,3.71, -6.26, 9.87, 3.09, 2.29, 10.21, repro,
1996-06-09,3.77, -2.27, 17.95, 4.01, 2.70, 12.64, repro,
1996-06-10,6.24, -3.33, 16.23, 4.64, 3.06, 13.58, repro,
1996-06-11,6.36, -3.08, 22.49, 3.48, 2.50, 10.87, repro,
1996-06-12,4.35, -4.70, 20.60, 3.67, 2.64, 11.30, repro,
1996-06-13,4.40, -3.64, 9.92, 3.33, 2.28, 10.54, repro,
1996-06-14,5.37, -3.47, 10.61, 3.52, 2.48, 11.19, repro,
1996-06-15,5.50, -2.84, 4.73, 3.47, 2.50, 11.92, repro,
1996-06-16,6.13, -3.86, 7.17, 3.54, 2.46, 11.48, repro,
1996-06-17,7.09, -2.87, 7.52, 3.65, 2.96, 11.99, repro,
1996-06-18,3.80, -4.92, 5.88, 3.91, 5.37, 11.35, repro,
1996-06-19,6.76, -10.23, 4.80, 6.31, 9.78, 16.31, repro,
1996-06-20,7.77, -4.97, 1.51, 4.11, 5.56, 12.45, repro,
1996-06-21,5.77, -1.36, 3.79, 3.71, 5.23, 10.86, repro,
1996-06-22,3.10, -6.56, -0.74, 3.44, 5.39, 10.48, repro,
1996-06-23,5.57, -6.85, 5.03, 3.72, 5.16, 11.03, repro,
1996-06-24,1.51, -3.80, 14.15, 3.98, 3.10, 11.61, repro,
1996-06-25,5.05, -3.81, 9.64, 3.09, 2.19, 9.93, repro,
1996-06-26,4.35, -3.43, 18.54, 2.97, 2.13, 9.55, repro,
1996-06-27,5.07, -3.90, 16.79, 3.44, 2.43, 11.51, repro,
1996-06-28,6.04, -4.20, 13.36, 3.56, 2.49, 11.11, repro,
1996-06-29,4.25, -3.85, 19.27, 3.15, 2.21, 10.08, repro,
1996-06-30,5.44, -4.25, 9.45, 3.39, 2.36, 11.10, repro,
1996-07-01,4.45, -3.72, 9.25, 3.42, 2.34, 10.46, repro,
1996-07-02,5.17, -4.86, 16.77, 3.71, 2.65, 12.19, repro,
1996-07-03,8.53, -2.71, 9.09, 3.82, 2.71, 12.63, repro,
1996-07-04,2.65, -5.49, 9.22, 3.50, 2.43, 11.02, repro,
1996-07-05,3.91, -3.48, 4.39, 3.39, 2.36, 11.27, repro,
1996-07-06,5.67, -4.38, 7.30, 3.09, 2.20, 10.86, repro,
1996-07-07,5.55, -3.48, 14.59, 3.28, 2.33, 10.57, repro,
1996-07-08,2.75, -5.51, 10.18, 3.75, 2.67, 11.93, repro,
1996-07-09,3.74, -4.44, 13.09, 3.46, 2.38, 11.06, repro,
1996-07-10,5.02, -5.66, 8.46, 3.74, 2.54, 11.85, repro,
1996-07-11,5.80, -4.71, 4.56, 3.23, 2.29, 10.86, repro,
1996-07-12,0.14, -3.37, 18.64, 3.74, 2.63, 12.52, repro,
1996-07-13,3.41, -4.41, 10.44, 3.10, 2.23, 9.76, repro,
1996-07-14,4.27, -4.81, 5.28, 3.09, 2.19, 9.68, repro,
1996-07-15,3.87, -4.11, 3.03, 3.24, 2.23, 10.07, repro,
1996-07-16,4.22, -5.64, 10.69, 3.12, 2.17, 9.73, repro,
1996-07-17,5.65, -5.02, 8.50, 4.25, 3.09, 13.28, repro,
1996-07-18,2.62, -2.55, 5.95, 2.92, 2.11, 9.45, repro,
1996-07-19,2.62, -3.73, 14.20, 2.95, 2.12, 9.50, repro,
1996-07-20,0.97, -2.72, 9.48, 3.68, 2.52, 11.45, repro,
1996-07-21,3.87, -4.62, 5.08, 3.31, 2.34, 10.46, repro,
1996-07-22,5.13, -5.64, 2.51, 3.31, 2.38, 10.97, repro,
1996-07-23,7.22, -6.91, -2.55, 2.98, 2.01, 9.87, repro,
1996-07-24,5.61, -8.32, 2.82, 3.31, 2.33, 11.18, repro,
1996-07-25,2.59, -6.40, -1.63, 3.41, 2.38, 12.21, repro,
1996-07-26,3.21, -5.70, 8.13, 3.43, 2.31, 11.71, repro,
1996-07-27,0.21, -6.83, 4.31, 3.21, 2.20, 10.48, repro,
1996-07-28,3.19, -5.90, 5.92, 3.06, 2.21, 10.64, repro,
1996-07-29,3.68, -4.75, 2.89, 3.15, 2.16, 10.48, repro,
1996-07-30,1.65, -5.38, 8.29, 3.21, 2.25, 11.32, repro,
1996-07-31,-0.27, -5.14, 3.92, 3.09, 2.17, 10.67, repro,
1996-08-01,5.20, -5.68, 5.49, 3.18, 2.20, 11.30, repro,
1996-08-02,0.85, -7.56, 14.63, 4.08, 2.73, 13.32, repro,
1996-08-03,3.10, -7.35, 12.18, 3.08, 2.06, 9.76, repro,
1996-08-04,3.10, -8.19, 11.32, 3.53, 2.27, 11.18, repro,
1996-08-05,0.25, -6.71, 10.51, 3.47, 2.30, 11.57, repro,
1996-08-06,3.81, -6.96, 9.79, 3.80, 2.41, 11.69, repro,
1996-08-07,3.47, -5.37, -0.38, 3.49, 2.42, 11.98, repro,
1996-08-08,3.39, -4.78, 2.03, 3.21, 2.12, 10.35, repro,
1996-08-09,3.53, -4.37, 10.09, 3.13, 2.30, 10.65, repro,
1996-08-10,4.96, -5.22, 7.86, 3.06, 2.16, 9.67, repro,
1996-08-11,4.18, -4.04, 3.96, 3.07, 2.10, 9.67, repro,
1996-08-12,2.64, -2.94, 7.15, 3.00, 2.12, 9.77, repro,
1996-08-13,2.75, -1.94, 4.66, 3.36, 2.30, 11.21, repro,
1996-08-14,2.00, -5.49, 3.71, 3.54, 2.53, 11.30, repro,
1996-08-15,2.90, -2.70, 6.58, 3.24, 2.33, 11.04, repro,
1996-08-16,1.23, -3.75, 1.59, 3.02, 2.18, 9.70, repro,
1996-08-17,6.15, -4.06, 11.09, 3.36, 2.42, 11.22, repro,
1996-08-18,4.84, -2.96, 6.81, 3.09, 2.19, 9.76, repro,
1996-08-19,3.61, -6.94, 17.22, 3.49, 2.33, 10.87, repro,
1996-08-20,5.79, -5.27, 6.50, 3.39, 2.33, 11.36, repro,
1996-08-21,2.66, -7.26, 8.59, 3.12, 2.18, 9.98, repro,
1996-08-22,2.22, -2.93, 15.65, 3.21, 2.23, 10.04, repro,
1996-08-23,2.31, -2.48, 16.10, 3.07, 2.11, 9.66, repro,
1996-08-24,4.16, -1.54, 9.91, 3.45, 2.32, 11.21, repro,
1996-08-25,1.97, -0.82, 20.62, 3.47, 2.45, 11.40, repro,
1996-08-26,5.81, -2.94, 28.14, 3.44, 2.32, 11.29, repro,
1996-08-27,3.91, -3.57, 13.86, 3.96, 2.59, 12.48, repro,
1996-08-28,4.17, -3.06, 15.75, 3.05, 2.12, 9.77, repro,
1996-08-29,5.12, -3.04, 3.77, 4.05, 2.84, 12.77, repro,
1996-08-30,2.81, -2.00, 23.89, 3.41, 2.41, 11.16, repro,
1996-08-31,4.69, -2.72, 19.14, 3.41, 2.31, 10.85, repro,
1996-09-01,5.73, -5.52, 19.48, 3.23, 2.28, 10.52, repro,
1996-09-02,3.69, -3.78, 14.15, 2.97, 2.10, 9.28, repro,
1996-09-03,4.99, -4.95, 11.12, 3.18, 2.11, 10.06, repro,
1996-09-04,2.98, -2.87, 9.42, 3.10, 2.10, 9.65, repro,
1996-09-05,5.00, -1.18, 14.09, 2.98, 2.03, 9.46, repro,
1996-09-06,3.89, -2.47, 4.50, 3.05, 2.11, 9.66, repro,
1996-09-07,4.44, -2.71, 21.98, 3.38, 2.39, 11.62, repro,
1996-09-08,0.49, -3.02, 19.58, 3.11, 2.14, 10.35, repro,
1996-09-09,4.55, -3.04, 12.46, 3.47, 2.39, 10.84, repro,
1996-09-10,2.01, -1.77, 10.39, 3.29, 2.19, 10.25, repro,
1996-09-11,6.08, -2.81, 7.99, 4.17, 2.97, 13.21, repro,
1996-09-12,3.62, -1.76, 12.55, 3.72, 2.54, 11.42, repro,
1996-09-13,5.41, -3.58, 28.35, 3.42, 2.36, 11.18, repro,
1996-09-14,4.75, -0.86, 14.48, 3.31, 2.20, 10.81, repro,
1996-09-15,3.84, -3.03, 10.68, 3.39, 2.33, 10.83, repro,
1996-09-16,3.90, -2.15, 22.29, 4.26, 2.88, 13.39, repro,
1996-09-17,0.35, -1.69, 18.86, 3.01, 2.06, 9.70, repro,
1996-09-18,2.10, -3.00, 13.91, 3.91, 2.71, 13.47, repro,
1996-09-19,1.77, -2.49, 13.86, 3.29, 2.29, 11.16, repro,
1996-09-20,3.70, -1.19, 16.12, 3.89, 2.63, 12.14, repro,
1996-09-21,2.61, -2.16, 15.85, 3.77, 2.54, 12.75, repro,
1996-09-22,3.85, -3.32, 18.48, 3.46, 2.33, 10.88, repro,
1996-09-23,1.60, -1.54, 11.35, 3.77, 2.49, 12.20, repro,
1996-09-24,3.03, -3.24, 6.22, 4.01, 2.66, 12.55, repro,
1996-09-25,-2.62, -3.57, 10.33, 8.49, 6.49, 20.37, repro,
1996-09-26,1.81, -3.50, 13.72, 3.31, 2.21, 12.34, repro,
1996-09-27,3.37, -5.75, 16.45, 4.03, 2.84, 13.03, repro,
1996-09-28,3.57, -6.09, 12.89, 3.49, 2.48, 11.88, repro,
1996-09-29,5.29, -5.35, 9.46, 3.45, 2.48, 11.23, repro,
1996-09-30,3.89, -4.48, 10.26, 2.91, 2.09, 9.44, repro,
1996-10-01,4.62, -5.06, 17.48, 3.39, 2.45, 11.27, repro,
1996-10-02,4.96, -4.45, 8.95, 2.79, 1.92, 8.84, repro,
1996-10-03,4.90, -3.27, 17.37, 2.96, 2.07, 9.54, repro,
1996-10-04,5.59, -0.42, 13.04, 2.95, 2.08, 9.77, repro,
1996-10-05,5.14, -3.80, 12.34, 3.20, 2.17, 9.97, repro,
1996-10-06,2.64, -3.89, 17.72, 3.36, 2.31, 10.85, repro,
1996-10-07,5.56, -4.04, 18.75, 2.76, 1.96, 8.99, repro,
1996-10-08,6.30, -4.51, 17.81, 3.48, 2.49, 11.56, repro,
1996-10-09,4.77, -3.94, 14.98, 3.14, 2.16, 10.11, repro,
1996-10-10,5.42, -3.92, 21.98, 3.64, 2.42, 11.17, repro,
1996-10-11,5.09, -3.87, 18.40, 3.12, 2.20, 9.88, repro,
1996-10-12,5.27, -4.73, 16.07, 3.18, 2.22, 10.32, repro,
1996-10-13,7.37, -4.17, 16.34, 3.19, 2.10, 9.67, repro,
1996-10-14,4.23, -3.25, 21.89, 3.48, 2.33, 11.11, repro,
1996-10-15,4.55, -4.21, 18.53, 3.18, 2.22, 10.13, repro,
1996-10-16,6.96, -4.16, 4.86, 4.06, 2.58, 11.88, repro,
1996-10-17,5.50, -2.30, 8.31, 2.82, 2.00, 8.76, repro,
1996-10-18,6.21, -5.46, 15.91, 3.13, 2.10, 10.61, repro,
1996-10-19,4.02, -4.46, 6.89, 3.98, 2.59, 12.75, repro,
1996-10-20,5.06, -3.79, 6.15, 3.47, 2.32, 11.27, repro,
1996-10-21,5.36, -3.46, 12.99, 3.62, 2.42, 11.25, repro,
1996-10-22,6.23, -3.99, 18.64, 3.80, 2.61, 12.80, repro,
1996-10-23,4.25, -4.30, 20.14, 3.00, 2.03, 9.66, repro,
1996-10-24,5.13, -3.36, 9.90, 3.32, 2.09, 10.24, repro,
1996-10-25,4.13, -2.78, 14.76, 3.09, 2.20, 9.90, repro,
1996-10-26,2.56, -2.95, 8.14, 3.13, 2.16, 10.07, repro,
1996-10-27,2.65, -2.47, 9.31, 3.18, 2.12, 9.63, repro,
1996-10-28,4.06, -4.35, 3.60, 3.20, 2.20, 9.94, repro,
1996-10-29,3.55, -4.84, 3.05, 2.98, 1.97, 9.50, repro,
1996-10-30,3.19, -3.61, 2.74, 3.36, 2.12, 10.66, repro,
1996-10-31,4.40, -3.25, 11.93, 3.31, 2.21, 9.89, repro,
1996-11-01,4.48, -2.74, 7.02, 2.86, 1.95, 8.85, repro,
1996-11-02,4.97, -3.03, 8.98, 2.94, 2.01, 9.23, repro,
1996-11-03,3.02, -3.60, 9.24, 2.80, 1.87, 8.76, repro,
1996-11-04,4.57, -1.45, 10.16, 3.52, 2.40, 10.81, repro,
1996-11-05,3.55, 1.11, 11.26, 3.09, 2.02, 9.50, repro,
1996-11-06,2.66, -1.29, 7.93, 3.13, 2.13, 9.82, repro,
1996-11-07,2.46, -4.11, 12.35, 3.40, 2.17, 10.49, repro,
1996-11-08,2.26, -3.24, 1.43, 3.57, 2.16, 11.82, repro,
1996-11-09,2.60, -3.10, -1.98, 3.11, 2.04, 9.97, repro,
1996-11-10,2.56, -1.45, 0.01, 3.34, 2.20, 10.50, repro,
1996-11-11,0.35, -2.72, -6.40, 3.19, 2.08, 9.92, repro,
1996-11-12,2.96, -1.02, -5.53, 3.32, 2.23, 10.35, repro,
1996-11-13,0.85, -2.15, 5.03, 3.04, 2.06, 9.34, repro,
1996-11-14,1.18, -3.71, 4.54, 3.55, 2.27, 10.42, repro,
1996-11-15,1.28, -3.49, -1.20, 3.21, 2.12, 9.98, repro,
1996-11-16,2.79, -2.95, 3.89, 3.51, 2.23, 10.81, repro,
1996-11-17,1.81, -3.69, -4.05, 3.78, 2.29, 10.81, repro,
1996-11-18,2.83, -2.78, -6.44, 3.59, 2.29, 11.11, repro,
1996-11-19,4.95, -3.93, -13.78, 3.14, 2.11, 9.70, repro,
1996-11-20,3.30, -4.12, 0.12, 3.15, 2.13, 9.87, repro,
1996-11-21,4.00, -3.95, 0.38, 3.31, 2.09, 9.76, repro,
1996-11-22,3.37, -5.29, -0.21, 3.14, 2.03, 10.03, repro,
1996-11-23,1.81, -4.28, -4.83, 3.17, 2.09, 9.91, repro,
1996-11-24,3.02, -3.05, -2.05, 3.32, 2.11, 9.92, repro,
1996-11-25,0.20, -3.07, -3.36, 3.60, 2.26, 11.02, repro,
1996-11-26,1.81, -3.35, 7.90, 4.02, 2.45, 12.19, repro,
1996-11-27,3.48, -3.69, 2.29, 3.75, 2.27, 10.89, repro,
1996-11-28,3.42, -2.80, 9.11, 3.40, 2.21, 10.67, repro,
1996-11-29,3.38, -3.70, 6.86, 3.47, 2.23, 10.68, repro,
1996-11-30,3.44, -3.13, 11.51, 3.41, 2.12, 10.15, repro,
1996-12-01,0.91, -2.85, 8.56, 3.13, 1.98, 9.67, repro,
1996-12-02,1.95, -1.58, 10.91, 3.27, 2.13, 9.95, repro,
1996-12-03,2.26, -3.33, 12.55, 3.33, 2.16, 10.23, repro,
1996-12-04,5.27, -0.86, 21.42, 3.34, 2.15, 9.95, repro,
1996-12-05,3.50, -2.97, 36.11, 3.29, 2.15, 9.72, repro,
1996-12-06,0.67, -3.23, 15.83, 3.54, 2.24, 10.43, repro,
1996-12-07,1.33, -3.26, 13.54, 3.30, 2.12, 9.81, repro,
1996-12-08,3.08, -2.87, 24.21, 3.10, 2.01, 9.08, repro,
1996-12-09,4.18, -2.49, 24.54, 3.40, 2.22, 9.77, repro,
1996-12-10,0.38, -1.17, 15.32, 3.42, 2.19, 10.26, repro,
1996-12-11,1.01, -2.74, 18.07, 3.00, 1.99, 9.21, repro,
1996-12-12,1.33, -3.36, 14.21, 3.10, 2.02, 9.20, repro,
1996-12-13,-0.65, -3.50, 10.51, 3.62, 2.34, 10.74, repro,
1996-12-14,1.96, -2.45, 8.41, 2.91, 1.95, 8.97, repro,
1996-12-15,1.31, -2.32, 18.42, 3.51, 2.37, 11.34, repro,
1996-12-16,2.39, -4.39, 3.58, 2.98, 1.94, 8.98, repro,
1996-12-17,0.83, -1.90, 5.20, 3.27, 2.13, 9.80, repro,
1996-12-18,1.22, -2.70, 5.23, 3.76, 2.34, 10.69, repro,
1996-12-19,2.74, -2.98, 12.43, 2.75, 1.87, 8.63, repro,
1996-12-20,3.19, -3.88, 7.41, 2.88, 1.93, 8.80, repro,
1996-12-21,2.67, -3.41, 4.10, 2.76, 1.92, 8.55, repro,
1996-12-22,2.31, -2.62, 9.27, 3.55, 2.39, 12.46, repro,
1996-12-23,0.44, -2.18, 9.38, 3.46, 2.27, 10.25, repro,
1996-12-24,2.36, -3.09, 6.89, 2.81, 1.87, 8.61, repro,
1996-12-25,2.91, -4.86, 4.43, 3.10, 2.14, 9.83, repro,
1996-12-26,3.43, -6.33, 12.21, 2.91, 2.02, 9.08, repro,
1996-12-27,4.02, -5.26, 13.58, 2.80, 1.92, 8.57, repro,
1996-12-28,4.84, -6.60, 19.08, 3.57, 2.32, 10.90, repro,
1996-12-29,2.02, -5.32, 11.59, 2.73, 1.86, 8.56, repro,
1996-12-30,1.30, -3.66, 5.27, 2.98, 2.00, 9.18, repro,
1996-12-31,2.74, -4.69, 17.97, 3.04, 2.06, 9.67, repro,
1997-01-01,3.04, -5.03, 17.24, 2.78, 1.94, 9.01, repro,
1997-01-02,3.94, -5.37, 25.63, 3.54, 2.39, 11.68, repro,
1997-01-03,2.77, -4.66, 13.66, 2.87, 1.97, 9.20, repro,
1997-01-04,2.05, -4.64, 7.99, 3.02, 2.08, 9.62, repro,
1997-01-05,0.67, -4.46, 9.57, 2.84, 1.95, 9.36, repro,
1997-01-06,2.16, -3.40, 19.22, 3.01, 2.04, 9.64, repro,
1997-01-07,3.82, -6.48, 4.52, 2.87, 1.92, 9.03, repro,
1997-01-08,1.46, -6.55, 3.76, 3.04, 2.09, 10.74, repro,
1997-01-09,1.57, -6.31, 4.84, 3.40, 2.15, 11.14, repro,
1997-01-10,1.82, -6.04, -4.83, 4.64, 3.14, 13.91, repro,
1997-01-11,2.98, -5.28, 14.15, 2.93, 1.98, 10.00, repro,
1997-01-12,1.20, -7.95, 8.07, 3.14, 1.99, 10.32, repro,
1997-01-13,3.61, -7.90, 10.31, 3.08, 2.16, 10.78, repro,
1997-01-14,3.14, -7.39, 6.32, 3.23, 2.05, 10.15, repro,
1997-01-15,5.52, -8.81, -9.89, 3.08, 2.17, 10.87, repro,
1997-01-16,5.42, -7.07, -3.70, 3.33, 2.23, 11.63, repro,
1997-01-17,4.62, -7.62, 11.70, 3.21, 2.16, 10.90, repro,
1997-01-18,3.30, -8.02, 14.61, 3.32, 2.34, 11.62, repro,
1997-01-19,5.17, -7.38, 7.41, 3.10, 2.15, 10.23, repro,
1997-01-20,6.07, -7.71, 4.25, 2.69, 1.79, 9.13, repro,
1997-01-21,4.59, -5.88, 0.08, 3.15, 2.12, 10.71, repro,
1997-01-22,5.25, -7.37, -0.07, 3.87, 2.45, 11.32, repro,
1997-01-23,3.68, -6.91, 3.33, 3.14, 2.05, 10.43, repro,
1997-01-24,5.40, -7.44, 6.69, 3.02, 2.14, 10.15, repro,
1997-01-25,4.26, -7.90, 8.14, 2.95, 2.08, 10.14, repro,
1997-01-26,4.72, -5.82, 2.41, 2.96, 2.04, 9.93, repro,
1997-01-27,4.29, -6.82, -1.83, 3.53, 2.42, 11.27, repro,
1997-01-28,4.37, -7.20, 7.78, 4.12, 2.91, 12.57, repro,
1997-01-29,5.10, -6.12, 5.86, 2.76, 1.89, 8.94, repro,
1997-01-30,5.31, -5.38, 19.33, 3.10, 2.09, 10.37, repro,
1997-01-31,3.16, -5.74, 20.34, 2.70, 1.85, 8.60, repro,
1997-02-01,4.42, -5.72, 15.91, 2.89, 1.97, 9.58, repro,
1997-02-24,2.82, -0.25, 6.52, 2.93, 2.03, 9.46, repro,
1997-02-25,5.09, 0.95, 1.67, 2.86, 1.94, 10.06, repro,
1997-02-26,5.35, 1.67, 3.21, 2.91, 1.97, 9.82, repro,
1997-02-27,4.12, 2.02, 6.69, 3.82, 2.59, 12.51, repro,
1997-02-28,6.07, 1.41, -0.64, 3.38, 2.19, 10.62, repro,
1997-03-01,5.80, 1.48, 10.35, 3.57, 2.53, 11.69, repro,
1997-03-02,3.65, 0.02, 1.40, 3.85, 2.33, 12.28, repro,
1997-03-03,3.56, -0.02, -5.38, 3.08, 2.21, 10.66, repro,
1997-03-04,6.15, 2.28, -2.71, 3.18, 2.38, 12.08, repro,
1997-03-05,5.08, 3.18, -0.41, 2.96, 2.00, 9.61, repro,
1997-03-06,4.62, 2.11, -0.84, 3.30, 2.25, 10.88, repro,
1997-03-07,7.96, 1.44, 6.22, 3.26, 2.20, 11.11, repro,
1997-03-08,7.49, 0.05, 12.83, 3.31, 2.39, 11.40, repro,
1997-03-09,7.87, 1.85, 0.43, 2.90, 2.01, 9.52, repro,
1997-03-10,11.34, 2.09, -0.06, 2.75, 1.92, 9.30, repro,
1997-03-11,9.95, -0.51, -16.67, 2.69, 1.86, 9.10, repro,
1997-03-12,10.99, -0.61, -20.33, 3.32, 2.26, 10.70, repro,
1997-03-13,10.70, 1.32, -17.45, 3.00, 2.10, 10.40, repro,
1997-03-14,10.49, 0.09, -14.24, 2.70, 1.82, 8.94, repro,
1997-03-15,10.62, -0.14, -0.82, 2.74, 1.86, 9.50, repro,